Regional Weather Roundup
Issued by NWS Albany, NY

Home | Current Version | Previous Version | Graphics & Text | Print | Product List | Glossary On
Versions: 1 2 3 4 5 6 7 8 9 10 11 12 13 14 15 16 17 18 19 20 21 22 23 24 25 26 27 28 29 30 31 32 33 34 35 36 37 38 39 40 41 42 43 44 45 46 47 48 49 50
000
ASUS41 KALY 140110
RWRALY

NEW YORK STATE HOURLY WEATHER ROUNDUP
NATIONAL WEATHER SERVICE ALBANY NY
900 PM EDT SAT SEP 13 2014

NOTE: "FAIR" INDICATES FEW OR NO CLOUDS BELOW 12,000 FEET WITH NO
SIGNIFICANT WEATHER AND/OR NO OBSTRUCTIONS TO VISIBILITY.

NYZ032-033-038>043-046>054-057>066-NYZ062>081-140200-
EAST


CITY           SKY/WX    TMP DP  RH WIND       PRES   REMARKS
ALBANY         MOCLDY    57  51  80 W3        30.19R
GLENS FALLS    CLEAR     56  51  84 SW6       30.14R
POUGHKEEPSIE   CLOUDY    60  57  89 CALM      30.16R
MONTGOMERY     PTCLDY    56  55  97 W6        30.17R
WHITE PLAINS   CLOUDY    61  59  93 NW5       30.15R FOG
ISLIP          LGT RAIN  62  60  93 NW6       30.12R FOG
NEW YORK CITY  LGT RAIN  63  60  90 NW12      30.14R FOG
CENTRAL PARK   CLOUDY    63  60  90 CALM      30.17S FOG
$$

NYZ005>009-017-018-044>046-055-056-140200-
CENTRAL


CITY           SKY/WX    TMP DP  RH WIND       PRES   REMARKS
FULTON         PTCLDY    51  47  86 W6        30.21R
SYRACUSE       MOCLDY    54  49  83 W6        30.22R
ROME           MOCLDY    53  50  89 W7        30.22R
ELMIRA         CLEAR     49  46  90 CALM      30.22R
BINGHAMTON     CLEAR     52  46  80 NW5       30.21R
MONTICELLO     PTCLDY    52  52 100 NW12      30.21R
$$

NYZ026>034-041>043-140200-
NORTH


CITY           SKY/WX    TMP DP  RH WIND       PRES   REMARKS
WATERTOWN      PTCLDY    51  42  71 NW9       30.21R
FORT DRUM      NOT AVBL
MASSENA        MOCLDY    49  45  86 W16G22    30.16R
SARANAC LAKE   CLOUDY    46  43  89 SW9       30.14R
PLATTSBURGH    CLOUDY    55  49  80 W9G17     30.11R
$$

NYZ001>004-010>016-019>021-140200-
WEST


CITY           SKY/WX    TMP DP  RH WIND       PRES   REMARKS
NIAGARA FALLS  MOCLDY    53  46  77 N9        30.25R
BUFFALO        PTCLDY    52  46  80 CALM      30.25R
DUNKIRK        CLOUDY    57  43  59 NW15      30.26R
JAMESTOWN      CLOUDY    52  45  76 NW6       30.26R
WELLSVILLE     CLOUDY    51  44  77 W7        30.25R
ROCHESTER      MOCLDY    53  48  83 W5        30.24R
PENN YAN       PTCLDY    53  48  83 NW6       30.24R
$$

             KEY
       WCI = WIND CHILL INDEX
       VSB = VISIBILITY
       HX  = HEAT INDEX
$$


USA.gov is the U.S. government's official web portal to all federal, state and local government web resources and services.